SWA2861 KOAK-KLAX

Flight info

Callsign SWA2861
Flight time 0h 56m
Altitude 35000
Route CNDEL5 SUSEY EBAYE BURGL IRNMN2
Aircraft B38M/M-SADE2E3GHIJ4J7P2RWZ/LB1D1

Departure

Time 2026-05-05 23:22
Airport San Francisco Bay Oakland International Airport (KOAK)

Arrival

Time 2026-05-06 00:18
Airport Los Angeles International Airport (KLAX)
Time Latitude Longitude Altitude Speed Heading
2026-05-05 22:55 37.70956 -122.21310 11 ft 0 kts 126°
2026-05-05 23:13 37.70958 -122.21312 11 ft 2 kts 126°
2026-05-05 23:13 37.70971 -122.21340 11 ft 4 kts 117°
2026-05-05 23:13 37.70984 -122.21367 13 ft 3 kts 129°
2026-05-05 23:13 37.70999 -122.21385 12 ft 4 kts 165°
2026-05-05 23:14 37.71017 -122.21377 11 ft 4 kts 228°
2026-05-05 23:14 37.71034 -122.21356 13 ft 2 kts 214°
2026-05-05 23:14 37.71035 -122.21355 12 ft 0 kts 214°
2026-05-05 23:18 37.71022 -122.21366 12 ft 7 kts 214°
2026-05-05 23:18 37.70950 -122.21432 13 ft 18 kts 217°
2026-05-05 23:18 37.70887 -122.21493 13 ft 11 kts 223°
2026-05-05 23:18 37.70861 -122.21590 11 ft 13 kts 246°
2026-05-05 23:19 37.70789 -122.21679 13 ft 17 kts 220°
2026-05-05 23:19 37.70697 -122.21773 12 ft 16 kts 206°
2026-05-05 23:19 37.70605 -122.21734 13 ft 15 kts 132°
2026-05-05 23:19 37.70529 -122.21622 12 ft 18 kts 130°
2026-05-05 23:20 37.70442 -122.21493 11 ft 20 kts 130°
2026-05-05 23:20 37.70337 -122.21388 11 ft 19 kts 158°
2026-05-05 23:20 37.70253 -122.21357 12 ft 10 kts 180°
2026-05-05 23:20 37.70183 -122.21403 13 ft 13 kts 229°
2026-05-05 23:21 37.70206 -122.21512 11 ft 19 kts 310°
2026-05-05 23:21 37.70382 -122.21776 12 ft 75 kts 310°
2026-05-05 23:21 37.70882 -122.22525 10 ft 146 kts 310°
2026-05-05 23:21 37.71653 -122.23652 255 ft 182 kts 310°
2026-05-05 23:22 37.72479 -122.24796 949 ft 171 kts 310°
2026-05-05 23:22 37.73268 -122.25896 1108 ft 167 kts 309°
2026-05-05 23:22 37.74016 -122.26995 1042 ft 164 kts 307°
2026-05-05 23:22 37.74741 -122.28098 928 ft 162 kts 307°
2026-05-05 23:23 37.75461 -122.29186 1015 ft 161 kts 308°
2026-05-05 23:23 37.76187 -122.30304 1269 ft 166 kts 306°
2026-05-05 23:23 37.76911 -122.31462 1452 ft 172 kts 305°
2026-05-05 23:23 37.77677 -122.32725 1884 ft 193 kts 304°
2026-05-05 23:24 37.78517 -122.34145 2607 ft 211 kts 301°
2026-05-05 23:24 37.79067 -122.35928 3313 ft 227 kts 273°
2026-05-05 23:24 37.78784 -122.37875 4389 ft 228 kts 244°
2026-05-05 23:24 37.77767 -122.39496 5174 ft 250 kts 218°
2026-05-05 23:25 37.76176 -122.40437 6168 ft 254 kts 195°
2026-05-05 23:25 37.74412 -122.40813 7117 ft 260 kts 187°
2026-05-05 23:25 37.72572 -122.41038 7916 ft 273 kts 186°
2026-05-05 23:25 37.70620 -122.41343 8552 ft 292 kts 189°
2026-05-05 23:26 37.68596 -122.41820 9435 ft 299 kts 191°
2026-05-05 23:26 37.66540 -122.42341 10377 ft 303 kts 192°
2026-05-05 23:26 37.64502 -122.42895 11311 ft 304 kts 193°
2026-05-05 23:26 37.62438 -122.43478 12327 ft 303 kts 193°
2026-05-05 23:27 37.60364 -122.44078 13201 ft 311 kts 193°
2026-05-05 23:27 37.58222 -122.44706 13986 ft 319 kts 193°
2026-05-05 23:27 37.56074 -122.45328 14846 ft 320 kts 192°
2026-05-05 23:27 37.53902 -122.45957 15762 ft 321 kts 193°
2026-05-05 23:28 37.51700 -122.46461 16561 ft 324 kts 183°
2026-05-05 23:28 37.49445 -122.46316 17304 ft 324 kts 162°
2026-05-05 23:28 37.47423 -122.45225 18242 ft 312 kts 140°
2026-05-05 23:28 37.45795 -122.43475 19003 ft 305 kts 127°
2026-05-05 23:29 37.44420 -122.41462 19659 ft 305 kts 122°
2026-05-05 23:29 37.43042 -122.39319 19873 ft 327 kts 124°
2026-05-05 23:29 37.41515 -122.37077 20099 ft 345 kts 126°
2026-05-05 23:29 37.39875 -122.34840 20701 ft 348 kts 128°
2026-05-05 23:30 37.38188 -122.32648 21459 ft 350 kts 127°
2026-05-05 23:30 37.36502 -122.30419 22032 ft 354 kts 127°
2026-05-05 23:30 37.34811 -122.28159 22708 ft 355 kts 126°
2026-05-05 23:30 37.33123 -122.25886 23359 ft 358 kts 126°
2026-05-05 23:31 37.31439 -122.23611 23869 ft 361 kts 126°
2026-05-05 23:31 37.29726 -122.21295 24363 ft 363 kts 126°
2026-05-05 23:31 37.28008 -122.18971 24876 ft 364 kts 126°
2026-05-05 23:31 37.26282 -122.16638 25367 ft 365 kts 125°
2026-05-05 23:32 37.24542 -122.14289 25845 ft 368 kts 125°
2026-05-05 23:32 37.22793 -122.11928 26286 ft 370 kts 125°
2026-05-05 23:32 37.21036 -122.09558 26780 ft 372 kts 125°
2026-05-05 23:32 37.19270 -122.07177 27249 ft 374 kts 125°
2026-05-05 23:33 37.17494 -122.04786 27714 ft 376 kts 124°
2026-05-05 23:33 37.15706 -122.02380 28172 ft 377 kts 124°
2026-05-05 23:33 37.13911 -121.99965 28614 ft 380 kts 124°
2026-05-05 23:33 37.12103 -121.97537 29092 ft 380 kts 124°
2026-05-05 23:34 37.10298 -121.95112 29572 ft 382 kts 124°
2026-05-05 23:34 37.08483 -121.92677 30005 ft 384 kts 124°
2026-05-05 23:34 37.06654 -121.90226 30412 ft 386 kts 124°
2026-05-05 23:34 37.04815 -121.87764 30692 ft 389 kts 124°
2026-05-05 23:35 37.02968 -121.85293 31104 ft 389 kts 124°
2026-05-05 23:35 37.01111 -121.82803 31410 ft 393 kts 124°
2026-05-05 23:35 36.99241 -121.80303 31725 ft 395 kts 124°
2026-05-05 23:35 36.97361 -121.77792 32160 ft 395 kts 123°
2026-05-05 23:36 36.95473 -121.75273 32471 ft 398 kts 123°
2026-05-05 23:36 36.93575 -121.72741 32769 ft 401 kts 123°
2026-05-05 23:36 36.91662 -121.70192 33083 ft 403 kts 123°
2026-05-05 23:36 36.89741 -121.67634 33389 ft 405 kts 123°
2026-05-05 23:37 36.87809 -121.65064 33690 ft 407 kts 123°
2026-05-05 23:37 36.85888 -121.62510 33991 ft 409 kts 123°
2026-05-05 23:37 36.83934 -121.59915 34272 ft 412 kts 123°
2026-05-05 23:37 36.81970 -121.57306 34517 ft 414 kts 124°
2026-05-05 23:38 36.79999 -121.54685 34722 ft 416 kts 124°
2026-05-05 23:38 36.78005 -121.52049 34958 ft 418 kts 124°
2026-05-05 23:38 36.76004 -121.49398 35085 ft 422 kts 124°
2026-05-05 23:38 36.73980 -121.46720 35096 ft 428 kts 124°
2026-05-05 23:39 36.69820 -121.41227 35080 ft 442 kts 124°
2026-05-05 23:39 36.65538 -121.35579 35082 ft 455 kts 125°
2026-05-05 23:40 36.61161 -121.29817 35094 ft 459 kts 125°
2026-05-05 23:40 36.56763 -121.24036 35118 ft 459 kts 125°
2026-05-05 23:41 36.52373 -121.18276 35099 ft 460 kts 126°
2026-05-05 23:41 36.47963 -121.12497 35079 ft 460 kts 126°
2026-05-05 23:42 36.43565 -121.06715 35084 ft 458 kts 123°
2026-05-05 23:42 36.39449 -121.00707 35080 ft 458 kts 123°
2026-05-05 23:43 36.35290 -120.94728 35111 ft 457 kts 123°
2026-05-05 23:43 36.31162 -120.88819 35068 ft 456 kts 123°
2026-05-05 23:44 36.26998 -120.82868 35089 ft 457 kts 123°
2026-05-05 23:44 36.22823 -120.76914 35100 ft 457 kts 123°
2026-05-05 23:45 36.18664 -120.70992 35088 ft 456 kts 123°
2026-05-05 23:45 36.14497 -120.65067 35071 ft 456 kts 123°
2026-05-05 23:46 36.10325 -120.59149 35069 ft 456 kts 123°
2026-05-05 23:46 36.06149 -120.53234 35061 ft 457 kts 123°
2026-05-05 23:47 36.02646 -120.48280 35065 ft 457 kts 123°
2026-05-05 23:47 35.98484 -120.42403 35059 ft 457 kts 123°
2026-05-05 23:48 35.94300 -120.36507 35071 ft 455 kts 123°
2026-05-05 23:48 35.90128 -120.30635 35065 ft 458 kts 123°
2026-05-05 23:49 35.85544 -120.25129 35039 ft 474 kts 141°
2026-05-05 23:49 35.79924 -120.20839 35047 ft 476 kts 140°
2026-05-05 23:50 35.74278 -120.16552 35049 ft 478 kts 141°
2026-05-05 23:50 35.68596 -120.12273 35045 ft 479 kts 141°
2026-05-05 23:51 35.62918 -120.07984 35045 ft 478 kts 141°
2026-05-05 23:51 35.57266 -120.03722 34904 ft 473 kts 142°
2026-05-05 23:52 35.54466 -120.01611 34654 ft 472 kts 141°
2026-05-05 23:52 35.51667 -119.99505 34411 ft 471 kts 141°
2026-05-05 23:52 35.48873 -119.97404 34174 ft 471 kts 141°
2026-05-05 23:52 35.46076 -119.95302 33921 ft 471 kts 141°
2026-05-05 23:53 35.43285 -119.93207 33646 ft 471 kts 141°
2026-05-05 23:53 35.40523 -119.91135 33377 ft 472 kts 141°
2026-05-05 23:53 35.37715 -119.89031 33106 ft 474 kts 141°
2026-05-05 23:53 35.34895 -119.86918 32828 ft 475 kts 141°
2026-05-05 23:54 35.32071 -119.84805 32579 ft 476 kts 141°
2026-05-05 23:54 35.29263 -119.82670 32337 ft 473 kts 138°
2026-05-05 23:54 35.26632 -119.80284 32093 ft 470 kts 135°
2026-05-05 23:54 35.24026 -119.77867 31831 ft 470 kts 135°
2026-05-05 23:55 35.21430 -119.75444 31595 ft 471 kts 135°
2026-05-05 23:55 35.18811 -119.73001 31350 ft 474 kts 135°
2026-05-05 23:55 35.16185 -119.70548 31100 ft 475 kts 135°
2026-05-05 23:55 35.13559 -119.68101 30853 ft 475 kts 135°
2026-05-05 23:56 35.10930 -119.65650 30603 ft 476 kts 135°
2026-05-05 23:56 35.08299 -119.63201 30366 ft 476 kts 135°
2026-05-05 23:56 35.05667 -119.60753 30121 ft 476 kts 135°
2026-05-05 23:56 35.03034 -119.58304 29845 ft 478 kts 135°
2026-05-05 23:57 35.00374 -119.55835 29540 ft 482 kts 136°
2026-05-05 23:57 34.97708 -119.53362 29219 ft 479 kts 136°
2026-05-05 23:57 34.95064 -119.50912 28252 ft 477 kts 136°
2026-05-05 23:57 34.92423 -119.48468 27244 ft 479 kts 137°
2026-05-05 23:58 34.89727 -119.46043 26165 ft 483 kts 138°
2026-05-05 23:58 34.87040 -119.43638 25815 ft 471 kts 138°
2026-05-05 23:58 34.84459 -119.41324 25768 ft 453 kts 139°
2026-05-05 23:58 34.81970 -119.39091 25709 ft 436 kts 139°
2026-05-05 23:59 34.79557 -119.36927 25635 ft 428 kts 139°
2026-05-05 23:59 34.77161 -119.34780 25563 ft 428 kts 139°
2026-05-05 23:59 34.74762 -119.32648 25481 ft 427 kts 140°
2026-05-05 23:59 34.72356 -119.30544 25268 ft 425 kts 140°
2026-05-06 00:00 34.69962 -119.28448 24847 ft 422 kts 140°
2026-05-06 00:00 34.67586 -119.26369 24371 ft 420 kts 140°
2026-05-06 00:00 34.65220 -119.24304 23941 ft 418 kts 141°
2026-05-06 00:00 34.62854 -119.22262 23374 ft 417 kts 141°
2026-05-06 00:01 34.60528 -119.20254 22861 ft 413 kts 141°
2026-05-06 00:01 34.58164 -119.18214 22304 ft 410 kts 141°
2026-05-06 00:01 34.55862 -119.16204 21795 ft 406 kts 141°
2026-05-06 00:01 34.53623 -119.14217 21338 ft 403 kts 141°
2026-05-06 00:02 34.51364 -119.12219 20830 ft 401 kts 141°
2026-05-06 00:02 34.49117 -119.10234 20380 ft 398 kts 142°
2026-05-06 00:02 34.46890 -119.08271 19920 ft 394 kts 142°
2026-05-06 00:02 34.44683 -119.06327 19452 ft 391 kts 142°
2026-05-06 00:03 34.42476 -119.04411 19014 ft 388 kts 142°
2026-05-06 00:03 34.40287 -119.02513 18537 ft 387 kts 142°
2026-05-06 00:03 34.38091 -119.00607 17922 ft 389 kts 142°
2026-05-06 00:03 34.35881 -118.98690 17282 ft 392 kts 142°
2026-05-06 00:04 34.33671 -118.96737 16666 ft 395 kts 141°
2026-05-06 00:04 34.31470 -118.94734 16055 ft 392 kts 142°
2026-05-06 00:04 34.29322 -118.92794 15482 ft 379 kts 141°
2026-05-06 00:04 34.27241 -118.90917 14919 ft 367 kts 141°
2026-05-06 00:05 34.23326 -118.87335 14308 ft 333 kts 141°
2026-05-06 00:05 34.21513 -118.85670 14106 ft 324 kts 141°
2026-05-06 00:05 34.19722 -118.84027 13742 ft 323 kts 140°
2026-05-06 00:06 34.17921 -118.82377 13281 ft 325 kts 141°
2026-05-06 00:06 34.16144 -118.80682 12818 ft 326 kts 135°
2026-05-06 00:06 34.14479 -118.78840 12436 ft 325 kts 135°
2026-05-06 00:06 34.12815 -118.77014 12121 ft 321 kts 136°
2026-05-06 00:07 34.11170 -118.75224 11816 ft 317 kts 136°
2026-05-06 00:07 34.09531 -118.73453 11500 ft 315 kts 136°
2026-05-06 00:07 34.07904 -118.71698 11157 ft 312 kts 136°
2026-05-06 00:07 34.06287 -118.69959 10832 ft 311 kts 136°
2026-05-06 00:08 34.04679 -118.68228 10515 ft 309 kts 136°
2026-05-06 00:08 34.03305 -118.66276 10149 ft 304 kts 114°
2026-05-06 00:08 34.02753 -118.63890 9792 ft 298 kts 94°
2026-05-06 00:08 34.02531 -118.61424 9486 ft 294 kts 95°
2026-05-06 00:09 34.02285 -118.58994 9171 ft 291 kts 94°
2026-05-06 00:09 34.02049 -118.56591 8867 ft 283 kts 94°
2026-05-06 00:09 34.01827 -118.54273 8543 ft 273 kts 94°
2026-05-06 00:09 34.01615 -118.52035 8231 ft 264 kts 95°
2026-05-06 00:10 34.01416 -118.49926 7981 ft 254 kts 95°
2026-05-06 00:10 34.01219 -118.47850 7736 ft 252 kts 95°
2026-05-06 00:10 34.01068 -118.45732 7439 ft 249 kts 84°
2026-05-06 00:10 34.01349 -118.43737 7113 ft 247 kts 75°
2026-05-06 00:11 34.01705 -118.41714 6822 ft 246 kts 76°
2026-05-06 00:11 34.02045 -118.39742 6528 ft 247 kts 76°
2026-05-06 00:11 34.02397 -118.37712 6188 ft 248 kts 77°
2026-05-06 00:11 34.02728 -118.35685 5983 ft 244 kts 82°
2026-05-06 00:12 34.02934 -118.33661 5720 ft 245 kts 82°
2026-05-06 00:12 34.03140 -118.31595 5343 ft 251 kts 83°
2026-05-06 00:12 34.03355 -118.29500 4971 ft 253 kts 83°
2026-05-06 00:12 34.03575 -118.27392 4685 ft 252 kts 83°
2026-05-06 00:13 34.03720 -118.25296 4392 ft 250 kts 94°
2026-05-06 00:13 34.03223 -118.23328 4033 ft 248 kts 125°
2026-05-06 00:13 34.01998 -118.21936 3748 ft 241 kts 153°
2026-05-06 00:13 34.00431 -118.21390 3556 ft 231 kts 180°
2026-05-06 00:14 33.98897 -118.21693 3328 ft 220 kts 205°
2026-05-06 00:14 33.97685 -118.22711 3049 ft 210 kts 228°
2026-05-06 00:14 33.96934 -118.24169 2734 ft 200 kts 250°
2026-05-06 00:14 33.96683 -118.25712 2471 ft 176 kts 262°
2026-05-06 00:15 33.96544 -118.27089 2247 ft 155 kts 262°
2026-05-06 00:15 33.96424 -118.28271 2217 ft 134 kts 261°
2026-05-06 00:15 33.96311 -118.29380 2042 ft 133 kts 262°
2026-05-06 00:15 33.96203 -118.30464 1911 ft 129 kts 261°
2026-05-06 00:16 33.96093 -118.31538 1736 ft 129 kts 261°
2026-05-06 00:16 33.95984 -118.32609 1515 ft 127 kts 261°
2026-05-06 00:16 33.95876 -118.33668 1345 ft 128 kts 261°
2026-05-06 00:16 33.95768 -118.34733 1128 ft 128 kts 261°
2026-05-06 00:17 33.95656 -118.35781 937 ft 125 kts 263°
2026-05-06 00:17 33.95552 -118.36835 690 ft 130 kts 261°
2026-05-06 00:17 33.95439 -118.37936 529 ft 132 kts 259°
2026-05-06 00:17 33.95324 -118.39042 325 ft 138 kts 261°
2026-05-06 00:18 33.95218 -118.40174 174 ft 133 kts 259°
2026-05-06 00:18 33.95103 -118.41217 97 ft 114 kts 264°
2026-05-06 00:18 33.95041 -118.41858 97 ft 44 kts 263°
2026-05-06 00:18 33.94992 -118.42107 96 ft 23 kts 244°
2026-05-06 00:19 33.94919 -118.42220 98 ft 16 kts 224°
2026-05-06 00:19 33.94880 -118.42258 100 ft 1 kts 211°
2026-05-06 00:20 33.94879 -118.42258 100 ft 1 kts 210°
2026-05-06 00:20 33.94847 -118.42274 99 ft 11 kts 196°
2026-05-06 00:20 33.94740 -118.42278 98 ft 13 kts 175°
2026-05-06 00:20 33.94686 -118.42212 99 ft 14 kts 89°
2026-05-06 00:21 33.94698 -118.42079 96 ft 20 kts 83°
2026-05-06 00:21 33.94717 -118.41887 96 ft 21 kts 83°
2026-05-06 00:21 33.94735 -118.41708 97 ft 22 kts 83°
2026-05-06 00:21 33.94755 -118.41511 96 ft 24 kts 83°
2026-05-06 00:22 33.94783 -118.41363 97 ft 17 kts 77°
2026-05-06 00:22 33.94800 -118.41209 98 ft 20 kts 83°
2026-05-06 00:22 33.94818 -118.41032 98 ft 22 kts 83°
2026-05-06 00:22 33.94837 -118.40846 97 ft 23 kts 83°
2026-05-06 00:23 33.94857 -118.40654 97 ft 22 kts 83°
2026-05-06 00:23 33.94876 -118.40467 99 ft 24 kts 83°
2026-05-06 00:23 33.94882 -118.40318 96 ft 14 kts 117°
2026-05-06 00:23 33.94796 -118.40269 97 ft 11 kts 166°
2026-05-06 00:24 33.94763 -118.40218 96 ft 6 kts 107°
2026-05-06 00:24 33.94756 -118.40194 98 ft 0 kts 109°